Estación de Quillota

Ultimos registro cada 15 minutos 33
Estación Fecha / Hora Temperatura Humedad Lluvia Velocidad Dirección Radiación Presion
33 Quillota 06-05-2026 08:00 8,6 93 0 1,3 219 14 1016,5
32 Quillota 06-05-2026 07:45 8,3 93 0 0,4 134 9 1016,1
31 Quillota 06-05-2026 07:30 8,6 93 0 0,4 169 0 1016,4
30 Quillota 06-05-2026 07:15 8,6 93 0 0,9 123 0 1016,7
29 Quillota 06-05-2026 07:00 8,6 93 0 0,4 218 0 1016,4
28 Quillota 06-05-2026 06:45 8,7 93 0 0,9 220 0 1016,3
27 Quillota 06-05-2026 06:30 8,8 93 0 0,9 78 0 1016,1
26 Quillota 06-05-2026 06:15 8,4 93 0 0,9 198 0 1016
25 Quillota 06-05-2026 06:00 8,2 93 0 0,4 134 0 1015,6
24 Quillota 06-05-2026 05:45 8,1 92 0 0,9 264 0 1015,4
23 Quillota 06-05-2026 05:30 8,7 91 0 0,4 308 0 1015,4
22 Quillota 06-05-2026 05:15 9,2 92 0 0,4 221 0 1015,5
21 Quillota 06-05-2026 05:00 9,1 92 0 0,9 221 0 1015,2
20 Quillota 06-05-2026 04:45 9,6 91 0 0 66 0 1015,2
19 Quillota 06-05-2026 04:30 9,8 92 0 0 138 0 1015,1
18 Quillota 06-05-2026 04:15 9,2 92 0 0 158 0 1015,2
17 Quillota 06-05-2026 04:00 9,4 92 0 0 69 0 1015
16 Quillota 06-05-2026 03:45 9,4 92 0 0,9 110 0 1014,9
15 Quillota 06-05-2026 03:30 9,8 92 0 0,9 154 0 1014,9
14 Quillota 06-05-2026 03:15 9,3 93 0 0,4 147 0 1014,9
13 Quillota 06-05-2026 03:00 8,3 90 0 0 147 0 1014,7
12 Quillota 06-05-2026 02:45 8,7 90 0 0 92 0 1014,3
11 Quillota 06-05-2026 02:30 8,6 90 0 0,4 91 0 1014,3
10 Quillota 06-05-2026 02:15 9,2 89 0 0 165 0 1014,6
9 Quillota 06-05-2026 02:00 9,7 89 0 0,4 86 0 1014,5
8 Quillota 06-05-2026 01:45 10,3 89 0 0,4 61 0 1014,6
7 Quillota 06-05-2026 01:30 10,9 91 0 0 61 0 1014,7
6 Quillota 06-05-2026 01:15 10,8 89 0 0 27 0 1014,8
5 Quillota 06-05-2026 01:00 11,2 89 0 0 27 0 1015
4 Quillota 06-05-2026 00:45 11,6 88 0 0,4 27 0 1015,2
3 Quillota 06-05-2026 00:30 11,9 88 0 0 23 0 1015,4
2 Quillota 06-05-2026 00:15 12,4 88 0 0 24 0 1015,5
1 Quillota 06-05-2026 00:00 12,6 89 0 0 49 0 1015,6